Location: Newark
(40.7066°N, 111.8219°W)
Time: 15:13:36
(UTC+00:00)

LightSail 2 - Visible Passes

Search period start: 14 October 2019 00:00
Search period end: 24 October 2019 00:00
Orbit: 707 x 723 km, 24.0° (Epoch: 13 October)

Date Brightness Start Highest point End Pass type
(mag) Time Alt. Az. Time Alt. Az. Time Alt. Az.
14 Oct 7.7 03:20:16 10° SSW 03:20:28 10° SSW 03:20:28 10° SSW visible
15 Oct 7.4 02:23:00 10° SSW 02:24:52 12° S 02:26:28 10° SSE visible
16 Oct 7.5 01:26:00 10° SSW 01:27:34 11° S 01:29:10 10° SSE visible
16 Oct 7.6 03:10:56 10° SSW 03:11:27 11° SSW 03:11:27 11° SSW visible
17 Oct 7.5 02:13:10 10° SSW 02:14:54 12° S 02:16:38 10° SSE visible
18 Oct 7.5 01:15:44 10° SSW 01:17:36 12° S 01:19:27 10° SSE visible
19 Oct 7.7 02:04:37 10° SSW 02:04:54 10° S 02:05:09 10° S visible
20 Oct 7.7 01:06:08 10° SSW 01:07:34 11° S 01:09:00 10° S visible
